Home > Weather > Watford > Past weeks

Flag for United Kingdom Weather for the Past 2 Weeks in Watford, England, United Kingdom

Now
41 °F

Partly cloudy.


Feels Like: 33 °F
Forecast: N/A
Wind: 15 mph from West

Location: Northolt

Current Time: Feb 9, 2016 at 11:26:54 PM

Latest Report: Feb 9, 2016 at 9:50 PM


Visibility: N/A

Pressure: 29.18 "Hg

Humidity: 81%

Dew point: 36 °F

Location of WatfordLocation

Historic Weather in Watford — Graph

°F

Watford Temperature Yesterday

Maximum temperature yesterday: 48 °F (at 1:50 AM)
Minimum temperature yesterday: 43 °F (at 9:50 PM)
Average temperature yesterday: 46 °F

High & Low Weather Summary for the Past Weeks

 TemperatureHumidityPressure
High57 °F (Feb 1, 1:50 PM)94% (Jan 26, 9:50 PM)30.36 "Hg (Jan 26, 9:50 PM)
Low36 °F (Jan 28, 5:50 AM)46% (Jan 30, 1:50 PM)29.03 "Hg (Feb 8, 3:50 AM)
Average48 °F77%29.80 "Hg
* Reported Jan 25 9:50 PM — Feb 9 9:50 PM, Watford, Weather by CustomWeather, © 2016

Note: Actual official high and low records may vary slightly from our data, if they occured in-between our weather recording intervals... More about our weather records

Advertising

Watford Weather History for the Previous 24 Hours

 ConditionsComfort  
Time TempWeatherWind HumidityBarometerVisibility
9:50 PM
Tue, Feb 9
41 °FPartly cloudy.15 mph81%29.18 "HgN/A
8:50 PM39 °FPartly cloudy.13 mph81%29.15 "HgN/A
7:50 PM39 °FPartly cloudy.15 mph81%29.15 "HgN/A
6:50 PM39 °FPartly cloudy.13 mph81%29.15 "HgN/A
5:50 PM41 °FPartly cloudy.17 mph66%29.15 "HgN/A
4:50 PM43 °FScattered clouds.12 mph57%29.12 "HgN/A
3:50 PM45 °FScattered clouds.15 mph53%29.09 "HgN/A
2:50 PM45 °FScattered clouds.15 mph53%29.09 "HgN/A
1:50 PM45 °FScattered clouds.16 mph53%29.09 "HgN/A
12:50 PM43 °FPartly sunny.14 mph61%29.09 "HgN/A
11:50 AM43 °FPartly sunny.12 mph66%29.09 "HgN/A
10:50 AM41 °FPartly sunny.8 mph81%29.09 "HgN/A
9:50 AM41 °FSunny.8 mph81%29.09 "Hg10 mi
8:50 AM41 °FSunny.6 mph81%29.09 "Hg10 mi
7:50 AM41 °FLight rain. Partly sunny.2 mph81%29.12 "HgN/A
6:50 AM41 °FClear.5 mph76%29.18 "Hg10 mi
5:50 AM39 °FPassing clouds.3 mph81%29.21 "HgN/A
4:50 AM39 °FPassing clouds.6 mph75%29.24 "HgN/A
3:50 AM39 °FClear.6 mph75%29.30 "HgN/A
2:50 AM41 °FPassing clouds.14 mph76%29.33 "HgN/A
1:50 AM41 °FPassing clouds.13 mph76%29.36 "HgN/A
12:50 AM41 °FClear.14 mph76%29.36 "HgN/A
11:50 PM
Mon, Feb 8
43 °FPassing clouds.15 mph66%29.36 "HgN/A
Weather by CustomWeather, © 2016

See weather overviewHow to use our weather pages